DKH1795 ZSNJ-ZSAM

Flight info

Callsign DKH1795
Flight time 1h 32m
Altitude 31100
Route TES71X TESIG A470 ENVEN ENVEN8X
Aircraft A320/M-SDE3FGHIRWY/LB1

Departure

Time 2026-04-24 13:14
Airport Nanjing Lukou International Airport (ZSNJ)

Arrival

Time 2026-04-24 14:47
Airport Xiamen Gaoqi International Airport (ZSAM)
Time Latitude Longitude Altitude Speed Heading
2026-04-24 12:57 31.73748 118.86245 58 ft 0 kts 178°
2026-04-24 13:05 31.73759 118.86244 56 ft 2 kts 177°
2026-04-24 13:05 31.73775 118.86243 56 ft 2 kts 178°
2026-04-24 13:05 31.73792 118.86243 54 ft 2 kts 179°
2026-04-24 13:05 31.73808 118.86243 54 ft 2 kts 183°
2026-04-24 13:06 31.73824 118.86246 54 ft 2 kts 208°
2026-04-24 13:06 31.73836 118.86259 53 ft 2 kts 249°
2026-04-24 13:06 31.73841 118.86278 51 ft 2 kts 264°
2026-04-24 13:06 31.73842 118.86288 52 ft 0 kts 267°
2026-04-24 13:08 31.73842 118.86279 52 ft 3 kts 268°
2026-04-24 13:08 31.73840 118.86231 55 ft 8 kts 267°
2026-04-24 13:08 31.73836 118.86142 58 ft 14 kts 268°
2026-04-24 13:09 31.73786 118.85980 53 ft 10 kts 255°
2026-04-24 13:09 31.73824 118.85918 52 ft 10 kts 312°
2026-04-24 13:09 31.73821 118.85850 56 ft 9 kts 238°
2026-04-24 13:09 31.73777 118.85769 58 ft 14 kts 238°
2026-04-24 13:10 31.73714 118.85652 53 ft 19 kts 238°
2026-04-24 13:10 31.73633 118.85502 56 ft 24 kts 237°
2026-04-24 13:10 31.73549 118.85344 57 ft 25 kts 238°
2026-04-24 13:10 31.73475 118.85206 55 ft 21 kts 238°
2026-04-24 13:11 31.73405 118.85076 52 ft 14 kts 237°
2026-04-24 13:11 31.73348 118.84969 55 ft 17 kts 238°
2026-04-24 13:11 31.73291 118.84861 55 ft 12 kts 237°
2026-04-24 13:11 31.73241 118.84770 56 ft 14 kts 238°
2026-04-24 13:12 31.73234 118.84700 58 ft 7 kts 299°
2026-04-24 13:12 31.73268 118.84670 55 ft 5 kts 328°
2026-04-24 13:12 31.73293 118.84652 57 ft 3 kts 328°
2026-04-24 13:12 31.73313 118.84637 57 ft 5 kts 327°
2026-04-24 13:13 31.73358 118.84621 56 ft 9 kts
2026-04-24 13:13 31.73396 118.84660 55 ft 0 kts 58°
2026-04-24 13:13 31.73398 118.84664 54 ft 4 kts 58°
2026-04-24 13:14 31.73536 118.84922 48 ft 75 kts 58°
2026-04-24 13:14 31.73932 118.85661 52 ft 136 kts 58°
2026-04-24 13:14 31.74523 118.86761 131 ft 175 kts 57°
2026-04-24 13:14 31.75183 118.87970 737 ft 177 kts 57°
2026-04-24 13:15 31.75861 118.89187 1409 ft 179 kts 58°
2026-04-24 13:15 31.76527 118.90413 2110 ft 178 kts 58°
2026-04-24 13:15 31.77175 118.91638 2763 ft 176 kts 59°
2026-04-24 13:15 31.77815 118.92860 3355 ft 177 kts 59°
2026-04-24 13:16 31.78498 118.94163 3629 ft 198 kts 59°
2026-04-24 13:16 31.79270 118.95627 3874 ft 223 kts 59°
2026-04-24 13:16 31.80074 118.97274 4345 ft 238 kts 70°
2026-04-24 13:16 31.80138 118.99203 5057 ft 243 kts 109°
2026-04-24 13:17 31.79154 119.00803 5783 ft 248 kts 146°
2026-04-24 13:17 31.77519 119.01387 6520 ft 252 kts 184°
2026-04-24 13:17 31.75808 119.00906 7253 ft 256 kts 202°
2026-04-24 13:17 31.74178 119.00037 8014 ft 259 kts 206°
2026-04-24 13:18 31.72547 118.99107 8781 ft 263 kts 205°
2026-04-24 13:18 31.70865 118.98223 9553 ft 267 kts 203°
2026-04-24 13:18 31.69070 118.97632 10257 ft 271 kts 185°
2026-04-24 13:18 31.67186 118.97845 10844 ft 281 kts 163°
2026-04-24 13:19 31.65413 118.98952 11142 ft 300 kts 143°
2026-04-24 13:19 31.63670 119.00469 11340 ft 323 kts 143°
2026-04-24 13:19 31.61804 119.02090 11618 ft 342 kts 143°
2026-04-24 13:19 31.59870 119.03761 12218 ft 348 kts 144°
2026-04-24 13:20 31.57903 119.05450 12901 ft 353 kts 144°
2026-04-24 13:20 31.55921 119.07167 13603 ft 356 kts 144°
2026-04-24 13:20 31.53923 119.08917 14241 ft 360 kts 144°
2026-04-24 13:20 31.51910 119.10688 14814 ft 364 kts 144°
2026-04-24 13:21 31.49871 119.12482 15390 ft 369 kts 144°
2026-04-24 13:21 31.47803 119.14297 15968 ft 373 kts 144°
2026-04-24 13:21 31.45715 119.16125 16520 ft 377 kts 145°
2026-04-24 13:21 31.43598 119.17977 17094 ft 382 kts 145°
2026-04-24 13:22 31.41460 119.19846 17647 ft 386 kts 146°
2026-04-24 13:22 31.39295 119.21738 18203 ft 390 kts 146°
2026-04-24 13:22 31.37109 119.23646 18706 ft 394 kts 146°
2026-04-24 13:22 31.34899 119.25573 19196 ft 398 kts 146°
2026-04-24 13:23 31.32670 119.27515 19698 ft 401 kts 146°
2026-04-24 13:23 31.30425 119.29472 20209 ft 404 kts 146°
2026-04-24 13:23 31.28160 119.31443 20720 ft 407 kts 146°
2026-04-24 13:23 31.25875 119.33428 21230 ft 411 kts 147°
2026-04-24 13:24 31.23573 119.35425 21748 ft 414 kts 147°
2026-04-24 13:24 31.21258 119.37434 22261 ft 416 kts 147°
2026-04-24 13:24 31.18924 119.39458 22751 ft 419 kts 147°
2026-04-24 13:24 31.16577 119.41501 23238 ft 423 kts 147°
2026-04-24 13:25 31.14216 119.43569 23719 ft 425 kts 147°
2026-04-24 13:25 31.11844 119.45650 24107 ft 428 kts 147°
2026-04-24 13:25 31.09460 119.47740 24496 ft 430 kts 148°
2026-04-24 13:25 31.07059 119.49839 24866 ft 432 kts 148°
2026-04-24 13:26 31.04642 119.51947 25257 ft 434 kts 149°
2026-04-24 13:26 31.02218 119.54060 25623 ft 436 kts 149°
2026-04-24 13:26 30.99782 119.56182 25980 ft 438 kts 149°
2026-04-24 13:26 30.97334 119.58318 26334 ft 440 kts 150°
2026-04-24 13:27 30.94875 119.60458 26685 ft 442 kts 150°
2026-04-24 13:27 30.92405 119.62601 27027 ft 444 kts 150°
2026-04-24 13:27 30.89918 119.64756 27366 ft 446 kts 151°
2026-04-24 13:27 30.87424 119.66919 27697 ft 448 kts 151°
2026-04-24 13:28 30.84918 119.69093 28022 ft 450 kts 151°
2026-04-24 13:28 30.82402 119.71273 28347 ft 452 kts 152°
2026-04-24 13:28 30.79871 119.73466 28656 ft 454 kts 152°
2026-04-24 13:28 30.77334 119.75668 28955 ft 456 kts 152°
2026-04-24 13:29 30.74788 119.77878 29253 ft 458 kts 152°
2026-04-24 13:29 30.72227 119.80097 29548 ft 460 kts 152°
2026-04-24 13:29 30.69661 119.82318 29835 ft 462 kts 152°
2026-04-24 13:29 30.67072 119.84546 30117 ft 463 kts 153°
2026-04-24 13:30 30.64472 119.86769 30335 ft 465 kts 153°
2026-04-24 13:30 30.61863 119.88994 30527 ft 467 kts 153°
2026-04-24 13:30 30.59241 119.91231 30741 ft 469 kts 152°
2026-04-24 13:30 30.56626 119.93510 30934 ft 471 kts 152°
2026-04-24 13:31 30.54026 119.95830 31144 ft 472 kts 151°
2026-04-24 13:31 30.51447 119.98158 31208 ft 463 kts 152°
2026-04-24 13:31 30.48814 120.00110 31211 ft 438 kts 164°
2026-04-24 13:31 30.46035 120.01321 31214 ft 418 kts 176°
2026-04-24 13:32 30.43217 120.01818 31214 ft 403 kts 187°
2026-04-24 13:32 30.40467 120.01677 31214 ft 390 kts 197°
2026-04-24 13:32 30.35457 119.99779 31215 ft 373 kts 215°
2026-04-24 13:33 30.30974 119.96789 31215 ft 372 kts 216°
2026-04-24 13:33 30.26486 119.93806 31214 ft 372 kts 216°
2026-04-24 13:34 30.22002 119.90831 31207 ft 372 kts 216°
2026-04-24 13:34 30.17520 119.87851 31202 ft 372 kts 216°
2026-04-24 13:35 30.13030 119.84872 31200 ft 372 kts 216°
2026-04-24 13:35 30.08538 119.81901 31201 ft 372 kts 216°
2026-04-24 13:36 30.04051 119.78930 31193 ft 371 kts 216°
2026-04-24 13:36 29.99577 119.75931 31199 ft 372 kts 216°
2026-04-24 13:37 29.95117 119.72914 31200 ft 372 kts 216°
2026-04-24 13:37 29.90653 119.69908 31202 ft 372 kts 216°
2026-04-24 13:38 29.86050 119.67145 31198 ft 380 kts 206°
2026-04-24 13:38 29.83455 119.66418 31197 ft 390 kts 195°
2026-04-24 13:38 29.80720 119.66213 31196 ft 395 kts 191°
2026-04-24 13:39 29.75263 119.65951 31195 ft 395 kts 191°
2026-04-24 13:39 29.69780 119.65593 31197 ft 394 kts 192°
2026-04-24 13:40 29.64305 119.65176 31197 ft 394 kts 192°
2026-04-24 13:40 29.58818 119.64861 31198 ft 396 kts 190°
2026-04-24 13:41 29.53301 119.64742 31197 ft 396 kts 190°
2026-04-24 13:41 29.47813 119.64489 31199 ft 394 kts 191°
2026-04-24 13:42 29.43278 119.64190 31197 ft 393 kts 192°
2026-04-24 13:42 29.37818 119.63820 31197 ft 393 kts 192°
2026-04-24 13:43 29.32360 119.63471 31205 ft 393 kts 191°
2026-04-24 13:43 29.26903 119.63141 31206 ft 392 kts 191°
2026-04-24 13:44 29.20572 119.62754 31202 ft 392 kts 191°
2026-04-24 13:44 29.15120 119.62425 31203 ft 392 kts 191°
2026-04-24 13:45 29.09677 119.62094 31202 ft 392 kts 191°
2026-04-24 13:45 29.05115 119.61810 31203 ft 392 kts 191°
2026-04-24 13:46 28.98796 119.61416 31204 ft 391 kts 191°
2026-04-24 13:46 28.94238 119.61135 31205 ft 391 kts 191°
2026-04-24 13:47 28.88805 119.60797 31207 ft 391 kts 191°
2026-04-24 13:47 28.83374 119.60466 31206 ft 391 kts 191°
2026-04-24 13:48 28.77945 119.60132 31205 ft 391 kts 191°
2026-04-24 13:48 28.72516 119.59793 31204 ft 391 kts 191°
2026-04-24 13:49 28.67117 119.59454 31203 ft 391 kts 191°
2026-04-24 13:49 28.61679 119.59113 31199 ft 391 kts 191°
2026-04-24 13:50 28.56241 119.58776 31200 ft 392 kts 191°
2026-04-24 13:50 28.50758 119.58447 31198 ft 392 kts 191°
2026-04-24 13:51 28.45312 119.58108 31201 ft 392 kts 191°
2026-04-24 13:51 28.39849 119.57785 31200 ft 393 kts 191°
2026-04-24 13:52 28.34391 119.57493 31205 ft 393 kts 191°
2026-04-24 13:52 28.28964 119.57201 31203 ft 393 kts 191°
2026-04-24 13:53 28.23512 119.56906 31201 ft 392 kts 191°
2026-04-24 13:53 28.18023 119.56604 31200 ft 392 kts 191°
2026-04-24 13:54 28.12579 119.56301 31199 ft 392 kts 191°
2026-04-24 13:54 28.07131 119.56052 31207 ft 393 kts 190°
2026-04-24 13:55 28.01662 119.55981 31197 ft 392 kts 189°
2026-04-24 13:55 27.96239 119.55941 31199 ft 392 kts 189°
2026-04-24 13:56 27.90774 119.55878 31204 ft 392 kts 189°
2026-04-24 13:56 27.85316 119.55837 31208 ft 392 kts 189°
2026-04-24 13:57 27.79863 119.55819 31212 ft 391 kts 189°
2026-04-24 13:57 27.74426 119.55795 31210 ft 391 kts 189°
2026-04-24 13:58 27.68989 119.55763 31208 ft 390 kts 189°
2026-04-24 13:58 27.63568 119.55725 31205 ft 389 kts 189°
2026-04-24 13:59 27.58157 119.55693 31203 ft 389 kts 189°
2026-04-24 13:59 27.52752 119.55666 31203 ft 388 kts 189°
2026-04-24 14:00 27.47359 119.55632 31200 ft 387 kts 189°
2026-04-24 14:00 27.41975 119.55597 31199 ft 387 kts 189°
2026-04-24 14:01 27.36596 119.55587 31198 ft 387 kts 189°
2026-04-24 14:01 27.31219 119.55588 31199 ft 387 kts 189°
2026-04-24 14:02 27.25839 119.55586 31204 ft 387 kts 189°
2026-04-24 14:02 27.20469 119.55560 31193 ft 385 kts 190°
2026-04-24 14:03 27.15114 119.55517 31197 ft 386 kts 190°
2026-04-24 14:03 27.09748 119.55480 31201 ft 385 kts 190°
2026-04-24 14:04 27.04390 119.55442 31209 ft 385 kts 190°
2026-04-24 14:04 26.99027 119.55414 31212 ft 385 kts 190°
2026-04-24 14:05 26.93671 119.55387 31208 ft 384 kts 190°
2026-04-24 14:05 26.88324 119.55347 31209 ft 384 kts 190°
2026-04-24 14:06 26.82980 119.55310 31211 ft 384 kts 190°
2026-04-24 14:06 26.77640 119.55281 31213 ft 384 kts 190°
2026-04-24 14:07 26.72296 119.55248 31208 ft 384 kts 190°
2026-04-24 14:07 26.66952 119.55208 31211 ft 384 kts 191°
2026-04-24 14:08 26.61611 119.55168 31207 ft 384 kts 191°
2026-04-24 14:08 26.56273 119.55138 31205 ft 384 kts 191°
2026-04-24 14:09 26.50922 119.55107 31206 ft 385 kts 191°
2026-04-24 14:09 26.45571 119.55072 31208 ft 384 kts 191°
2026-04-24 14:10 26.40226 119.55037 31204 ft 384 kts 191°
2026-04-24 14:10 26.34882 119.54993 31206 ft 384 kts 191°
2026-04-24 14:11 26.29548 119.54926 31207 ft 383 kts 191°
2026-04-24 14:12 26.21613 119.54592 31207 ft 371 kts 200°
2026-04-24 14:12 26.16730 119.53043 31208 ft 363 kts 206°
2026-04-24 14:13 26.11894 119.51391 31213 ft 364 kts 205°
2026-04-24 14:13 26.07060 119.49734 31229 ft 364 kts 206°
2026-04-24 14:14 26.02220 119.48083 31225 ft 364 kts 206°
2026-04-24 14:14 25.94955 119.45622 31227 ft 364 kts 206°
2026-04-24 14:15 25.90112 119.43975 31218 ft 364 kts 206°
2026-04-24 14:15 25.85278 119.42327 31217 ft 364 kts 206°
2026-04-24 14:16 25.80435 119.40686 31209 ft 364 kts 206°
2026-04-24 14:17 25.73537 119.37585 31200 ft 348 kts 222°
2026-04-24 14:17 25.68479 119.31984 31195 ft 343 kts 230°
2026-04-24 14:18 25.65201 119.28139 31198 ft 343 kts 230°
2026-04-24 14:18 25.61920 119.24294 31194 ft 343 kts 230°
2026-04-24 14:19 25.58632 119.20442 31197 ft 344 kts 230°
2026-04-24 14:19 25.56990 119.18517 31072 ft 341 kts 230°
2026-04-24 14:19 25.55376 119.16628 30838 ft 336 kts 230°
2026-04-24 14:20 25.53778 119.14754 30607 ft 334 kts 230°
2026-04-24 14:20 25.52187 119.12885 30368 ft 332 kts 230°
2026-04-24 14:20 25.50604 119.11032 30129 ft 332 kts 230°
2026-04-24 14:20 25.49018 119.09179 29853 ft 331 kts 230°
2026-04-24 14:21 25.47436 119.07329 29585 ft 331 kts 230°
2026-04-24 14:21 25.45854 119.05479 29319 ft 330 kts 230°
2026-04-24 14:21 25.44276 119.03638 29062 ft 329 kts 230°
2026-04-24 14:21 25.42700 119.01804 28791 ft 329 kts 229°
2026-04-24 14:22 25.41123 118.99970 28531 ft 328 kts 229°
2026-04-24 14:22 25.39574 118.98163 28275 ft 328 kts 230°
2026-04-24 14:22 25.36445 118.94506 27765 ft 327 kts 230°
2026-04-24 14:23 25.34890 118.92684 27409 ft 325 kts 230°
2026-04-24 14:23 25.33345 118.90875 26960 ft 322 kts 230°
2026-04-24 14:23 25.31829 118.89059 26483 ft 320 kts 230°
2026-04-24 14:23 25.30334 118.87240 25994 ft 319 kts 231°
2026-04-24 14:24 25.28844 118.85420 25524 ft 319 kts 231°
2026-04-24 14:24 25.27358 118.83608 25013 ft 318 kts 231°
2026-04-24 14:24 25.25871 118.81797 24541 ft 318 kts 231°
2026-04-24 14:24 25.24388 118.79995 24048 ft 317 kts 231°
2026-04-24 14:25 25.23383 118.78776 23717 ft 317 kts 231°
2026-04-24 14:25 25.21418 118.76401 23046 ft 315 kts 231°
2026-04-24 14:25 25.19942 118.74619 22575 ft 314 kts 231°
2026-04-24 14:25 25.18478 118.72857 22129 ft 312 kts 231°
2026-04-24 14:26 25.17008 118.71090 21667 ft 310 kts 231°
2026-04-24 14:26 25.15551 118.69334 21182 ft 309 kts 231°
2026-04-24 14:26 25.14100 118.67585 20715 ft 309 kts 231°
2026-04-24 14:26 25.12660 118.65851 20301 ft 306 kts 231°
2026-04-24 14:27 25.11220 118.64117 19808 ft 307 kts 231°
2026-04-24 14:27 25.09776 118.62380 19400 ft 306 kts 231°
2026-04-24 14:27 25.08804 118.61214 19158 ft 305 kts 231°
2026-04-24 14:27 25.06877 118.58967 18631 ft 304 kts 230°
2026-04-24 14:28 25.05886 118.57832 18343 ft 304 kts 230°
2026-04-24 14:28 25.04415 118.56155 17867 ft 304 kts 230°
2026-04-24 14:28 25.02468 118.53939 17271 ft 304 kts 230°
2026-04-24 14:28 25.01495 118.52829 16970 ft 304 kts 230°
2026-04-24 14:29 25.00008 118.51126 16532 ft 304 kts 230°
2026-04-24 14:29 24.98545 118.49445 16113 ft 304 kts 230°
2026-04-24 14:29 24.97079 118.47760 15710 ft 304 kts 230°
2026-04-24 14:29 24.95617 118.46081 15302 ft 304 kts 230°
2026-04-24 14:30 24.94152 118.44400 14906 ft 304 kts 230°
2026-04-24 14:30 24.92686 118.42719 14526 ft 304 kts 230°
2026-04-24 14:30 24.91219 118.41041 14131 ft 304 kts 230°
2026-04-24 14:30 24.89755 118.39369 13892 ft 299 kts 230°
2026-04-24 14:31 24.88334 118.37748 13765 ft 289 kts 230°
2026-04-24 14:31 24.86960 118.36179 13617 ft 280 kts 230°
2026-04-24 14:31 24.85634 118.34653 13500 ft 272 kts 230°
2026-04-24 14:31 24.84352 118.33172 13372 ft 263 kts 230°
2026-04-24 14:32 24.83108 118.31737 13241 ft 255 kts 230°
2026-04-24 14:32 24.81904 118.30346 13088 ft 248 kts 230°
2026-04-24 14:32 24.80723 118.28982 12866 ft 245 kts 230°
2026-04-24 14:32 24.79545 118.27636 12590 ft 243 kts 229°
2026-04-24 14:33 24.78373 118.26306 12284 ft 242 kts 229°
2026-04-24 14:33 24.77204 118.24980 11984 ft 241 kts 229°
2026-04-24 14:33 24.76041 118.23660 11687 ft 240 kts 229°
2026-04-24 14:33 24.74881 118.22346 11391 ft 239 kts 228°
2026-04-24 14:34 24.73727 118.21035 11099 ft 238 kts 228°
2026-04-24 14:34 24.72596 118.19749 10801 ft 237 kts 228°
2026-04-24 14:34 24.71450 118.18448 10492 ft 236 kts 227°
2026-04-24 14:34 24.70307 118.17153 10184 ft 235 kts 227°
2026-04-24 14:35 24.69169 118.15864 9871 ft 235 kts 227°
2026-04-24 14:35 24.68033 118.14580 9533 ft 233 kts 227°
2026-04-24 14:35 24.66907 118.13304 9199 ft 232 kts 227°
2026-04-24 14:35 24.65785 118.12032 8858 ft 231 kts 227°
2026-04-24 14:36 24.64669 118.10768 8519 ft 230 kts 227°
2026-04-24 14:36 24.63558 118.09509 8197 ft 229 kts 227°
2026-04-24 14:36 24.62454 118.08257 7893 ft 227 kts 227°
2026-04-24 14:36 24.61358 118.07015 7564 ft 226 kts 227°
2026-04-24 14:37 24.60270 118.05780 7235 ft 224 kts 227°
2026-04-24 14:37 24.59186 118.04551 6911 ft 223 kts 227°
2026-04-24 14:37 24.58106 118.03329 6582 ft 222 kts 227°
2026-04-24 14:37 24.57031 118.02113 6232 ft 222 kts 227°
2026-04-24 14:38 24.55960 118.00887 5852 ft 223 kts 228°
2026-04-24 14:38 24.54912 117.99626 5480 ft 224 kts 229°
2026-04-24 14:38 24.53868 117.98348 5116 ft 225 kts 229°
2026-04-24 14:38 24.52822 117.97063 4760 ft 226 kts 229°
2026-04-24 14:39 24.51773 117.95777 4395 ft 226 kts 229°
2026-04-24 14:39 24.50722 117.94496 4059 ft 225 kts 228°
2026-04-24 14:39 24.49704 117.93261 4001 ft 211 kts 228°
2026-04-24 14:39 24.48756 117.92109 4019 ft 195 kts 228°
2026-04-24 14:40 24.47856 117.91015 4024 ft 191 kts 227°
2026-04-24 14:40 24.46789 117.90182 3733 ft 190 kts 200°
2026-04-24 14:40 24.45490 117.90020 3399 ft 190 kts 170°
2026-04-24 14:40 24.44289 117.90556 3167 ft 186 kts 142°
2026-04-24 14:41 24.43260 117.91430 3045 ft 188 kts 140°
2026-04-24 14:41 24.42232 117.92312 2919 ft 187 kts 137°
2026-04-24 14:41 24.41548 117.93467 2939 ft 182 kts 102°
2026-04-24 14:41 24.41640 117.94828 2884 ft 182 kts 65°
2026-04-24 14:42 24.42392 117.95933 2764 ft 181 kts 51°
2026-04-24 14:42 24.43171 117.97015 2638 ft 180 kts 54°
2026-04-24 14:42 24.43926 117.98100 2505 ft 178 kts 53°
2026-04-24 14:42 24.44688 117.99174 2410 ft 178 kts 53°
2026-04-24 14:43 24.45449 118.00241 2329 ft 177 kts 53°
2026-04-24 14:43 24.46198 118.01285 2277 ft 167 kts 53°
2026-04-24 14:43 24.46895 118.02258 2148 ft 158 kts 53°
2026-04-24 14:43 24.47565 118.03193 1980 ft 154 kts 53°
2026-04-24 14:44 24.48208 118.04091 1784 ft 151 kts 53°
2026-04-24 14:44 24.48857 118.04999 1578 ft 151 kts 53°
2026-04-24 14:44 24.49509 118.05908 1372 ft 152 kts 53°
2026-04-24 14:44 24.50162 118.06821 1172 ft 152 kts 52°
2026-04-24 14:45 24.50790 118.07698 966 ft 141 kts 52°
2026-04-24 14:45 24.51382 118.08524 783 ft 136 kts 53°
2026-04-24 14:45 24.51961 118.09335 625 ft 134 kts 52°
2026-04-24 14:45 24.52544 118.10140 402 ft 135 kts 52°
2026-04-24 14:46 24.53111 118.10963 231 ft 136 kts 51°
2026-04-24 14:46 24.53697 118.11773 83 ft 135 kts 52°
2026-04-24 14:46 24.54224 118.12506 58 ft 103 kts 48°
2026-04-24 14:46 24.54559 118.12974 50 ft 53 kts 52°
2026-04-24 14:47 24.54683 118.13170 51 ft 25 kts 69°
2026-04-24 14:47 24.54711 118.13328 50 ft 18 kts 83°
2026-04-24 14:47 24.54730 118.13474 50 ft 20 kts 73°
2026-04-24 14:47 24.54800 118.13597 47 ft 17 kts 52°
2026-04-24 14:48 24.54869 118.13697 48 ft 14 kts 63°
2026-04-24 14:48 24.54834 118.13770 48 ft 6 kts 142°
2026-04-24 14:48 24.54803 118.13796 48 ft 5 kts 142°
2026-04-24 14:48 24.54787 118.13826 46 ft 5 kts 97°
2026-04-24 14:49 24.54806 118.13880 47 ft 9 kts 78°
2026-04-24 14:49 24.54810 118.13901 47 ft 0 kts 78°